Location: Pace/Milton
(30.6162°N, 87.1503°W)
Time: 07:57:38
(UTC-06:00)

Hubble Space Telescope - Pass Details

Date: 29 November 2021
Orbit: 535 x 538 km, 28.5° (Epoch: 23 January)

Event Time Altitude Azimuth Distance (km) Brightness Sun altitude
Exits shadow 04:46:08 58° 223° (SW) 620 0.8 -21.3°
Maximum altitude 04:46:39 65° 180° (S) 582 0.9 -21.2°
Drops below altitude 10° 04:50:43 10° 98° (E) 1,775 4.6 -20.3°
Sets 04:52:59 0° 96° (E) 2,666 5.9 -19.9°
